O3B FM16

Last updated on Thu Dec 28 2023 00:03:05 GMT+0000 (Coordinated Universal Time)

1 43232U 18024B 23361.03955769 -.00000023 00000+0 00000+0 0 9992 2 43232 0.0451 354.2571 0002720 278.8293 86.8811 5.00115141105762
UTC large
Height (km)
Speed (km/s)
/
Latitude / Longitude
Inclination (degrees)
Orbital Period (minutes)
Azimuth
Elevation
Range (km)
Doppler Factor

Next 0 passes for location: London (51.5072 / 0.1276)

Sorry there are no passes over London.
O3B FM16